This demonstration page uses our WeatherBlox Daily Observations layout. Learn more.

Left ArrowRight Arrow

Hourly Observations for May 31, 2017

Temp ( °F °C ) Dew Point ( °F °C ) Humidity (%) Winds ( mph kmh ) Pressure ( in mb ) Visibility ( mi km ) Precip ( " mm )
12:15 am 00:15 Cloudy with Mist and Fog 64 18 64 18 100 100 N N/A 30.06 1018 5 8 N/A
12:35 am 00:35 Cloudy 64 18 64 18 100 100 N N/A 30.06 1018 7 11 N/A
12:55 am 00:55 Cloudy 64 18 64 18 100 100 N N/A 30.06 1018 7 11 N/A
1:15 am 01:15 Cloudy 64 18 64 18 100 100 N N/A 30.06 1018 7 11 N/A
1:35 am 01:35 Cloudy 64 18 64 18 100 100 ESE 3 6 30.03 1017 7 11 N/A
1:55 am 01:55 Cloudy 64 18 64 18 100 100 N N/A 30.03 1017 7 11 N/A
2:35 am 02:35 Partly Cloudy with Mist and Fog 63 17 63 17 100 100 N N/A 30.03 1017 5 8 N/A
2:55 am 02:55 Mostly Cloudy with Mist and Fog 63 17 63 17 100 100 N N/A 30.03 1017 3 4 N/A
3:15 am 03:15 Cloudy with Fog 63 17 63 17 100 100 N N/A 30.03 1017 1 1 N/A
3:35 am 03:35 Cloudy with Fog 63 17 63 17 100 100 N N/A 30.03 1017 0 0 N/A
3:55 am 03:55 Cloudy with Fog 63 17 63 17 100 100 N N/A 30.03 1017 1 1 N/A
4:15 am 04:15 Partly Cloudy with Mist and Fog 63 17 63 17 100 100 N N/A 30.03 1017 5 8 N/A
4:35 am 04:35 Clear with Mist and Fog 61 16 61 16 100 100 N N/A 30.03 1017 3 5 N/A
4:55 am 04:55 Cloudy with Mist and Fog 63 17 63 17 100 100 N N/A 30.03 1017 1 2 N/A
5:15 am 05:15 Cloudy with Fog 61 16 61 16 100 100 N N/A 30.03 1017 0 0 N/A
5:35 am 05:35 Cloudy with Fog 61 16 61 16 100 100 NW 12 19 30.06 1018 1 1 N/A
5:55 am 05:55 Cloudy 63 17 63 17 100 100 N N/A 30.06 1018 7 11 N/A
6:15 am 06:15 Cloudy with Mist and Fog 63 17 63 17 100 100 N N/A 30.03 1017 5 8 N/A
6:35 am 06:35 Partly Cloudy with Mist and Fog 63 17 63 17 100 100 SE 3 6 30.06 1018 5 8 N/A
6:55 am 06:55 Partly Cloudy with Mist and Fog 63 17 63 17 100 100 ESE 5 7 30.03 1017 5 8 N/A
7:15 am 07:15 Cloudy 64 18 64 18 100 100 N N/A 30.03 1017 7 11 N/A
7:35 am 07:35 Partly Cloudy 64 18 64 18 100 100 N N/A 30.06 1018 7 11 N/A
7:55 am 07:55 Mostly Cloudy 64 18 64 18 100 100 N N/A 30.06 1018 7 11 N/A
8:15 am 08:15 Cloudy 64 18 64 18 100 100 N N/A 30.06 1018 10 16 N/A
8:35 am 08:35 Mostly Cloudy 68 20 68 20 100 100 N N/A 30.06 1018 10 16 N/A
8:55 am 08:55 Partly Cloudy 68 20 68 20 100 100 N N/A 30.06 1018 10 16 N/A
9:15 am 09:15 Sunny 68 20 68 20 100 100 N N/A 30.06 1018 10 16 N/A
9:35 am 09:35 Partly Cloudy 70 21 68 20 94 94 N N/A 30.06 1018 10 16 N/A
9:55 am 09:55 Sunny 72 22 68 20 88 88 N N/A 30.06 1018 10 16 N/A
10:15 am 10:15 Partly Cloudy 73 23 68 20 83 83 WSW 5 7 30.06 1018 10 16 N/A
10:35 am 10:35 Sunny 73 23 68 20 83 83 W 6 9 30.03 1017 10 16 N/A
10:55 am 10:55 Partly Cloudy 75 24 66 19 74 74 W 6 9 30.03 1017 10 16 N/A
11:15 am 11:15 Partly Cloudy 77 25 66 19 69 69 WNW 5 7 30.03 1017 10 16 N/A
11:35 am 11:35 Partly Cloudy 77 25 64 18 65 65 N N/A 30.03 1017 10 16 N/A
11:55 am 11:55 Partly Cloudy 77 25 64 18 65 65 W 3 6 30.03 1017 10 16 N/A
12:15 pm 12:15 Partly Cloudy 79 26 63 17 58 58 NW 7 11 30.03 1017 10 16 N/A
12:35 pm 12:35 Sunny 79 26 59 15 51 51 NNW 6 9 30.03 1017 10 16 N/A
12:55 pm 12:55 Sunny 81 27 57 14 45 45 W 6 9 30.03 1017 10 16 N/A
1:15 pm 13:15 Sunny 81 27 59 15 48 48 NNW 5 7 30.03 1017 10 16 N/A
1:35 pm 13:35 Sunny 81 27 57 14 45 45 WNW 6 9 30.03 1017 10 16 N/A
1:55 pm 13:55 Sunny 82 28 59 15 45 45 WNW 5 7 30.00 1016 10 16 N/A
2:15 pm 14:15 Partly Cloudy 81 27 59 15 48 48 NW 5 7 30.00 1016 10 16 N/A
2:35 pm 14:35 Partly Cloudy 81 27 59 15 48 48 NNW 7 11 30.00 1016 10 16 N/A
2:55 pm 14:55 Partly Cloudy 81 27 59 15 48 48 NW 3 6 30.00 1016 10 16 N/A
3:15 pm 15:15 Partly Cloudy 82 28 59 15 45 45 W 5 7 30.00 1016 10 16 N/A
3:35 pm 15:35 Sunny 82 28 59 15 45 45 WNW 7 11 30.00 1016 10 16 N/A
3:55 pm 15:55 Sunny 84 29 59 15 43 43 N N/A 29.97 1015 10 16 N/A
4:15 pm 16:15 Sunny 82 28 57 14 42 42 N 3 6 29.97 1015 10 16 N/A
4:35 pm 16:35 Sunny 84 29 57 14 40 40 WNW 3 6 29.97 1015 10 16 N/A
4:55 pm 16:55 Partly Cloudy with Thunderstorms 82 28 59 15 45 45 WSW 5 7 29.94 1014 10 16 N/A
5:15 pm 17:15 Partly Cloudy 84 29 57 14 40 40 WSW 10 17 29.97 1015 10 16 N/A
5:35 pm 17:35 Partly Cloudy 77 25 61 16 57 57 S 14 22 30.00 1016 10 16 N/A
5:55 pm 17:55 Partly Cloudy 79 26 61 16 54 54 SSW 14 22 29.97 1015 10 16 N/A
6:15 pm 18:15 Sunny 77 25 63 17 61 61 SSW 15 24 29.97 1015 10 16 N/A
6:35 pm 18:35 Sunny 75 24 64 18 69 69 SSW 9 15 29.97 1015 10 16 N/A
6:55 pm 18:55 Sunny 73 23 63 17 69 69 SSW 9 15 29.97 1015 10 16 N/A
7:15 pm 19:15 Sunny 73 23 63 17 69 69 S 10 17 29.97 1015 10 16 N/A
7:35 pm 19:35 Sunny 73 23 61 16 65 65 SSW 9 15 29.97 1015 10 16 N/A
8:15 pm 20:15 Sunny 70 21 61 16 73 73 SW 5 7 29.97 1015 10 16 N/A
8:35 pm 20:35 Clear 68 20 63 17 83 83 SW 5 7 29.97 1015 10 16 N/A
8:55 pm 20:55 Clear 68 20 63 17 83 83 SW 6 9 29.97 1015 10 16 N/A
9:15 pm 21:15 Clear 68 20 63 17 83 83 S 6 9 30.00 1016 10 16 N/A
9:35 pm 21:35 Clear 68 20 63 17 83 83 S 3 6 30.00 1016 10 16 N/A
9:55 pm 21:55 Clear 66 19 63 17 88 88 S 5 7 30.00 1016 10 16 N/A
10:15 pm 22:15 Partly Cloudy 64 18 63 17 94 94 N 13 20 30.03 1017 10 16 N/A
10:35 pm 22:35 Partly Cloudy 64 18 63 17 94 94 N N/A 30.03 1017 10 16 N/A
10:55 pm 22:55 Partly Cloudy 64 18 63 17 94 94 N N/A 30.03 1017 10 16 N/A
11:15 pm 23:15 Partly Cloudy 64 18 63 17 94 94 N N/A 30.00 1016 10 16 N/A
11:35 pm 23:35 Partly Cloudy 64 18 63 17 94 94 N N/A 30.00 1016 10 16 N/A
11:55 pm 23:55 Partly Cloudy 63 17 61 16 94 94 N N/A 30.00 1016 10 16 N/A

Powered by AerisWeather